Location: Corcelles
(46.1547°N, 4.7234°E)
Time: 08:08:32
(UTC+00:00)

SWAS - Pass Details

Date: 14 July 2020
Orbit: 578 x 593 km, 69.9° (Epoch: 14 August)

Event Time Altitude Azimuth Distance (km) Brightness Sun altitude
Exits shadow 02:41:10 16° 205° (SSW) 1,553 6.0 -11.6°
Maximum altitude 02:44:33 86° 116° (ESE) 595 4.5 -11.2°
Drops below altitude 10° 02:48:53 10° 29° (NNE) 1,927 8.5 -10.7°
Sets 02:51:08 0° 29° (NNE) 2,834 9.7 -10.5°
